ASNARO

Last updated on Sun Apr 12 2026 00:02:35 GMT+0000 (Coordinated Universal Time)

1 40298U 14070A 26101.51817947 .00009316 00000+0 44225-3 0 9995 2 40298 97.3470 179.4189 0004187 59.9115 300.2535 15.19454216633888
UTC large
Height (km)
Speed (km/s)
/
Latitude / Longitude
Inclination (degrees)
Orbital Period (minutes)
Azimuth
Elevation
Range (km)
Doppler Factor

Next 0 passes for location: London (51.5072 / 0.1276)

Sorry there are no passes over London.
ASNARO